Location: Équennes
(49.7375°N, 1.9622°E)
Time: 19:10:36
(UTC+00:00)

Cosmos 2278 - Pass Details

Date: 28 September 2023
Orbit: 838 x 853 km, 71.1° (Epoch: 08 December)

Event Time Altitude Azimuth Distance (km) Brightness Sun altitude
Rises 17:54:57 0° 231° (SW) 3,391 7.7 -3.6°
Reaches altitude 10° 17:57:31 10° 238° (WSW) 2,462 7.1 -4.0°
Maximum altitude 18:02:52 42° 309° (NW) 1,200 5.1 -4.9°
Drops below altitude 10° 18:08:15 10° 19° (NNE) 2,485 6.0 -5.7°
Sets 18:10:52 0° 27° (NNE) 3,426 6.6 -6.2°
